Location: Bessat
(45.8735°N, 1.9924°E)
Time: 16:08:57
(UTC+00:00)

Cosmos 1933 - Pass Details

Date: 11 May 2021
Orbit: 547 x 562 km, 82.5° (Epoch: 21 June)

Event Time Altitude Azimuth Distance (km) Brightness Sun altitude
Rises 20:06:27 0° 184° (S) 2,725 6.5 -8.7°
Reaches altitude 10° 20:08:36 10° 184° (S) 1,832 5.7 -9.0°
Maximum altitude 20:12:38 80° 97° (E) 568 3.3 -9.6°
Drops below altitude 10° 20:16:41 10° 11° (N) 1,839 6.4 -10.1°
Sets 20:18:51 0° 10° (N) 2,736 7.3 -10.4°
